SB KEPS @ AMSAT $ORB07017.N 2Line Orbital Elements 07017.AMSAT
HR AMSAT ORBITAL ELEMENTS FOR AMATEUR SATELLITES IN NASA FORMAT FROM WA5QGD FORT WORTH,TX January 17, 2007 Send SUBSCRIBE KEPS/UNSUBSCRIBE KEPS to majordomo@amsat.org only BID: ORB07017.N
DECODE 2-LINE ELSETS WITH THE FOLLOWING KEY: 1 AAAAAU 00 0 0 BBBBB.BBBBBBBB .CCCCCCCC 00000-0 00000-0 0 DDDZ 2 AAAAA EEE.EEEE FFF.FFFF GGGGGGG HHH.HHHH III.IIII JJ.JJJJJJJJKKKKKZ KEY: A-CATALOGNUM B-EPOCHTIME C-DECAY D-ELSETNUM E-INCLINATION F-RAAN G-ECCENTRICITY H-ARGPERIGEE I-MNANOM J-MNMOTION K-ORBITNUM Z-CHECKSUM
TO ALL RADIO AMATEURS BT
AO-07 1 07530U 74089B 07016.58904103 -.00000028 00000-0 10000-3 0 07833 2 07530 101.5394 058.9349 0012057 190.8969 169.1845 12.53572355472123 AO-10 1 14129U 83058B 07016.02965165 -.00000175 00000-0 10000-3 0 03519 2 14129 027.0185 296.2920 6049988 350.1253 001.9519 02.05870470177435 UO-11 1 14781U 84021B 07016.63272215 .00000344 00000-0 53374-4 0 02774 2 14781 098.2011 036.3209 0008340 303.6236 056.4167 14.79513167227324 RS-10/11 1 18129U 87054A 07016.95921596 .00000030 00000-0 16212-4 0 02155 2 18129 082.9250 170.0352 0010612 214.8925 145.1534 13.72783413980489 RS-15 1 23439U 94085A 07016.94059694 -.00000039 00000-0 10597-3 0 00378 2 23439 064.8185 251.5204 0163849 217.2315 141.7156 11.27551479496642 FO-29 1 24278U 96046B 07016.97049713 .00000067 00000-0 10127-3 0 04129 2 24278 098.5292 357.0793 0351291 115.1845 248.6148 13.52927180514450 SO-33 1 25509U 98061B 07016.36893509 -.00000091 00000-0 -31899-4 0 8425 2 25509 031.4327 004.0920 0355302 180.1308 179.9259 14.28143441429534 AO-40 1 26609U 00072B 07015.47705362 -.00000092 00000-0 10000-3 0 8275 2 26609 004.9026 184.7945 7998738 258.4976 012.1864 01.25586078 28527 VO-52 1 28650U 05017B 07016.79708075 .00000085 00000-0 17646-4 0 5314 2 28650 097.8506 090.7892 0027774 028.7381 331.5322 14.81251147 92003 AO-16 1 20439U 90005D 07016.85999032 .00000024 00000-0 24341-4 0 09456 2 20439 098.1905 019.8073 0010065 280.7366 079.2682 14.31747414886893 LO-19 1 20442U 90005G 07017.55272564 .00000014 00000-0 20398-4 0 8751 2 20442 098.1819 029.9587 0011041 276.8813 083.1115 14.31988978887136 AO-27 1 22825U 93061C 07016.83807390 .00000042 00000-0 32807-4 0 05952 2 22825 098.3106 353.4804 0008450 356.0246 004.0871 14.29197027693873 IO-26 1 22826U 93061D 07016.49140319 .00000029 00000-0 27413-4 0 02900 2 22826 098.3041 354.2826 0009103 354.3828 005.7249 14.29442193693906 PO-28 1 22829U 93061G 07016.87128425 .00000055 00000-0 37265-4 0 05716 2 22829 098.2930 355.8309 0009364 326.6176 033.4407 14.30140375694189 GO-32 1 25397U 98043D 07016.57595555 -.00000049 00000-0 -33292-5 0 02082 2 25397 098.4399 070.2550 0000792 357.8653 002.2527 14.23118530442594 MO-46 1 26548U 00057D 07016.87305593 -.00000022 00000-0 15529-4 0 07002 2 26548 064.5586 290.7625 0032521 217.2011 142.6844 14.83085876341107 NO-44 1 26931U 01043C 07016.89089199 -.00000062 00000-0 82628-5 0 05004 2 26931 067.0506 177.2150 0005233 279.4918 080.5621 14.29468603276474 SO-50 1 27607U 02058C 07016.81469831 .00000056 00000-0 30758-4 0 02217 2 27607 064.5566 184.5966 0037840 052.7132 307.7393 14.71219428218852 CO-55 1 27844U 03031E 07016.59356470 -.00000048 00000-0 -17562-5 0 9401 2 27844 098.7208 026.9582 0010363 164.4172 195.7326 14.20485087183959 CO-57 1 27848U 03031J 07016.59498492 .00000117 00000-0 75116-4 0 09049 2 27848 098.7189 026.2128 0010095 167.9322 192.2076 14.20308067183931 AO-51 1 28375U 04025K 07016.73292781 .00000019 00000-0 18828-4 0 7257 2 28375 098.1352 063.6895 0083552 281.9655 077.2176 14.40551793133906 CO-56 1 28941U 06005C 07016.86856279 .00020801 23119-5 23418-3 0 03346 2 28941 098.1559 061.6920 0250286 086.3742 276.6079 15.33455694050197 HO-59 1 29484U 06041F 07017.04262462 .00030232 25393-5 25035-3 0 1592 2 29484 098.3119 045.1084 0251429 083.3162 279.7146 15.39350580 17731 NO-60 1 29661U 06055C 07016.77891628 .00053018 00000-0 22126-3 0 378 2 29661 051.6404 164.8737 0013452 117.5366 242.7041 15.84984521 4243 NO-61 1 29667U 06055J 07016.86393964 .00016582 00000-0 78954-4 0 257 2 29667 051.6345 164.6746 0017591 114.1218 246.1630 15.82842339 3999 NOAA-10 1 16969U 86073A 07016.88483107 -.00000100 00000-0 -22326-4 0 05053 2 16969 098.7546 033.9116 0011725 247.4109 112.5829 14.27314546057645 NOAA-11 1 19531U 88089A 07016.86383184 .00000200 00000-0 12631-3 0 04811 2 19531 098.8187 107.8970 0012401 100.8643 259.3917 14.14833580944756 NOAA-12 1 21263U 91032A 07016.76447475 -.00000072 00000-0 -11427-4 0 09762 2 21263 098.7456 014.3120 0012843 183.9638 176.1434 14.25519991814670 MET-3/5 1 21655U 91056A 07016.91688811 .00000051 00000-0 10000-3 0 02843 2 21655 082.5563 109.8273 0012567 222.8753 137.1391 13.17007998741495 MET-2/21 1 22782U 93055A 07016.86884608 .00000029 00000-0 12748-4 0 07259 2 22782 082.5480 161.9516 0021145 302.7595 057.1530 13.83614529675598 OKEAN-4 1 23317U 94066A 07017.73172758 .00000231 00000-0 25659-4 0 1625 2 23317 082.5392 076.9032 0023155 032.2517 328.0137 14.82456896661763 NOAA-14 1 23455U 94089A 07016.54966638 -.00000164 00000-0 -62735-4 0 04704 2 23455 099.0120 081.7944 0009810 165.2244 194.9217 14.13691638621214 SICH-1 1 23657U 95046A 07016.65606206 .00000099 00000-0 96101-5 0 09633 2 23657 082.5260 218.8004 0024591 024.9145 335.3255 14.81441163613590 NOAA-15 1 25338U 98030A 07016.88896572 .00000188 00000-0 99344-4 0 08335 2 25338 098.5257 017.8837 0011371 109.5333 250.7081 14.24622862451145 RESURS 1 25394U 98043A 07017.71521558 -.00000022 00000-0 86098-5 0 5500 2 25394 098.4661 078.0434 0000731 294.5811 065.5289 14.24124255442933 FENGYUN1 1 25730U 99025A 07011.90621003 .00000180 00000-0 12153-3 0 9323 2 25730 098.6464 001.7411 0013513 266.0357 094.0215 14.11820274395460 OKEAN-0 1 25860U 99039A 07016.58978980 .00000064 00000-0 17144-4 0 9541 2 25860 097.7304 025.9340 0001599 101.1608 258.9782 14.73423297403175 NOAA-16 1 26536U 00055A 07016.87585642 -.00000108 00000-0 -33633-4 0 02357 2 26536 099.0977 351.3332 0009965 237.5923 122.4260 14.12398073325741 NOAA-17 1 27453U 02032A 07016.59241929 .00000139 00000-0 79460-4 0 02539 2 27453 098.6000 089.4161 0012161 171.6791 188.4605 14.23846060237141 NOAA-18 1 28654U 05018A 07016.57962175 -.00000099 00000-0 -30811-4 0 08025 2 28654 098.8132 320.5346 0014188 340.6572 019.4047 14.11028321085472 HUBBLE 1 20580U 90037B 07016.59413632 .00000409 00000-0 18970-4 0 07856 2 20580 028.4666 098.5903 0003665 282.1692 077.8484 15.00175874717172 UARS 1 21701U 91063B 07016.97555171 .00003538 00000-0 68444-4 0 09735 2 21701 056.9775 249.2908 0090997 259.2208 099.8599 15.46395019842341 PO-34 1 25520U 98064B 07015.47657851 .00000543 00000-0 17140-4 0 06612 2 25520 028.4599 050.7509 0004914 033.7542 326.3364 15.16903372454312 ISS 1 25544U 98067A 07017.99740940 .00024308 00000-0 14644-3 0 4632 2 25544 051.6327 160.0560 0023303 102.7848 000.5072 15.77177700467053 OO-38 1 26063U 00004C 07016.88229474 -.00000007 00000-0 18041-4 0 8174 2 26063 100.2143 351.6385 0036633 225.2706 134.5490 14.35792971365330 NO-45 1 26932U 01043D 07016.89382160 -.00000063 00000-0 75796-5 0 05233 2 26932 067.0533 176.9489 0003326 270.8351 089.2368 14.29546595276519 UWE-1 1 28892U 05043C 07016.69816566 .00000223 00000-0 56741-4 0 06555 2 28892 098.1471 276.2142 0016496 223.6268 136.3646 14.59454138065116 CO-58 1 28895U 05043F 07016.75047382 .00000187 00000-0 49076-4 0 06379 2 28895 098.1485 276.4201 0017161 223.5042 136.4843 14.59503613065002 NCUBE2 1 28897U 05043H 07016.70484796 .00000168 00000-0 44923-4 0 1718 2 28897 098.1463 276.3444 0016362 225.8472 134.1367 14.59662778 57276 NMARS 1 29662U 06055D 07017.53424854 .00069649 00000-0 28334-3 0 438 2 29662 051.6370 160.9124 0012710 118.1567 242.0729 15.85420081 4253 FCAL 1 29664U 06055F 07016.86345319 .00024450 00000-0 11365-3 0 00384 2 29664 051.6339 164.6721 0016975 111.9886 248.2926 15.83047280004123 /EX
participants (1)
-
Ray Hoad